Dewpoint
61 49 41 37 46 43 36 31 11 14 20 11 19 15 -2 10 18 18 17 37 42 46 51 52 52 51 50 50 53 59 59 50 49 47 45 53 67 68 68 70 72 72 72 73 74 74 75 75 75 75 74 74 74 74 74 74 74 74 74 74 74 74 74 74 73 74 73 73 73 73 72 72 72 72 72 71 71 71 70 70 69 70 70 70 70 70 69 69 69 68 68 67 68 68 68 68 69
47 45 37 40 38 35 32 28 22 22 23 17 18 15 13 13 20 16 13 37 41 50 54 56 57 58 58 59 60 56 57 61 61 59 65 67 67 68 70 71 72 71 72 73 73 74 74 74 75 75 74 74 74 74 74 74 74 73 73 73 73 74 74 74 73 73 73 73 73 73 72 73 72 72 72 71 71 71 70 70 69 69 69 70 70 70 69 69 69 68 68 68 67 67 68 68 69
49 35 29 39 34 35 34 30 20 22 18 10 13 18 18 16 17 16 13 47 52 54 55 55 53 52 55 55 52 55 53 62 64 65 66 67 67 69 70 71 70 71 72 72 73 73 74 74 74 74 74 74 74 74 74 74 74 73 73 73 73 74 74 74 73 73 73 73 73 72 72 72 72 71 71 71 71 72 71 70 70 69 68 69 69 70 69 69 69 68 68 68 68 68 68 68 69
44 46 34 35 31 30 31 30 25 18 14 13 16 14 16 14 29 37 43 50 52 52 46 43 47 50 54 56 58 61 61 62 64 65 65 67 67 70 69 69 70 71 71 72 72 73 73 73 74 74 74 74 74 74 74 74 74 73 73 73 73 74 74 74 74 74 73 73 73 72 72 72 72 72 72 71 72 71 71 71 70 69 68 68 68 69 69 69 69 68 68 68 68 67 68 69 69
37 45 42 35 30 31 28 30 28 22 15 21 10 15 28 31 36 42 45 49 50 43 43 47 47 49 54 56 54 53 57 63 63 66 67 68 70 69 69 69 70 70 71 72 72 73 73 74 74 73 74 74 74 74 74 73 73 74 73 73 73 73 74 73 73 73 73 73 73 72 72 72 71 72 72 72 72 72 72 71 71 71 71 70 70 69 69 70 69 68 68 68 68 68 68 68 68
37 35 38 34 33 33 28 26 26 24 20 21 16 16 16 18 32 34 37 40 41 40 43 46 48 48 52 53 53 60 62 60 64 66 67 69 69 69 69 70 70 70 71 72 72 72 72 74 73 73 73 73 73 74 73 73 73 73 73 73 73 73 74 74 73 73 73 73 73 72 72 72 70 71 72 72 72 72 72 72 72 71 70 70 70 70 70 70 69 68 68 67 68 68 68 69 69
32 33 33 29 30 31 27 27 26 25 25 21 21 19 19 21 32 35 42 44 46 48 49 49 52 52 53 55 57 58 63 64 64 66 69 70 69 69 69 69 70 70 71 72 72 73 73 73 73 73 73 73 73 73 73 73 73 72 73 73 73 73 73 73 74 73 73 73 73 72 72 72 72 72 72 72 72 72 72 72 72 71 70 70 69 70 70 70 70 69 69 69 69 69 69 68 68
41 28 34 26 24 23 23 25 25 25 24 23 22 21 24 20 32 35 36 42 44 46 49 50 50 51 52 55 54 58 63 65 66 69 70 70 69 69 69 70 70 70 70 71 72 72 72 73 73 73 73 73 73 73 73 73 73 73 72 73 73 73 73 73 73 73 73 73 73 72 72 72 72 72 72 72 72 72 72 72 72 71 71 70 69 70 70 70 70 70 70 70 69 69 68 68 68
30 29 36 24 24 24 20 17 18 21 24 22 21 24 41 26 28 30 33 36 38 43 45 49 50 49 52 56 56 61 64 67 69 70 70 70 69 69 70 70 69 69 70 71 72 72 73 73 73 73 73 73 73 73 73 73 73 72 72 71 72 73 73 73 73 73 73 73 72 72 72 72 72 72 72 72 72 72 72 72 71 71 71 70 70 70 70 70 70 70 70 70 69 69 69 69 68
28 29 26 26 25 22 22 19 20 18 14 15 16 15 14 14 16 20 27 34 40 46 48 51 51 52 56 57 59 61 64 68 69 69 69 69 69 70 70 70 70 69 70 71 71 72 72 73 73 73 73 73 73 73 73 73 73 72 72 71 71 70 72 72 73 73 73 73 73 73 72 72 72 72 72 72 70 72 72 72 72 71 70 69 69 70 70 70 70 70 70 70 70 69 69 69 69
26 21 30 19 22 19 20 18 20 21 22 23 19 18 16 14 15 24 31 36 42 46 51 53 53 55 55 53 55 61 66 68 68 68 69 69 70 70 70 70 69 69 69 70 71 71 71 72 73 73 73 73 73 73 73 72 72 72 72 70 70 71 71 71 72 73 73 73 73 72 72 72 72 72 72 70 71 71 71 72 71 70 70 69 69 69 69 69 69 69 70 70 70 70 69 69 68
21 19 18 20 21 20 19 20 20 19 19 19 16 16 16 14 23 30 35 40 42 49 50 51 52 54 54 56 58 64 66 67 68 68 69 69 70 70 70 70 70 69 70 70 70 70 70 71 71 72 72 72 72 72 72 72 72 72 72 71 70 70 71 71 72 73 73 73 72 72 72 72 72 72 72 71 71 71 72 71 71 70 70 70 69 70 69 69 69 69 69 70 70 69 69 68 68
22 18 18 16 16 19 25 20 14 26 20 14 14 14 14 18 25 32 37 42 45 48 48 47 53 54 53 55 59 64 65 66 68 68 69 69 69 70 70 69 69 69 70 70 69 69 70 70 71 72 72 73 72 72 72 72 72 72 72 71 70 70 71 72 72 72 72 72 72 72 72 72 72 72 71 71 72 72 71 71 71 71 71 71 70 70 69 69 69 69 70 70 69 69 69 68 68
22 20 19 16 20 16 15 15 15 13 13 13 13 13 14 14 28 33 39 44 47 43 44 52 52 54 54 58 60 62 63 66 68 68 69 69 69 69 69 69 69 69 69 69 69 69 69 70 70 70 71 71 72 72 72 72 71 71 71 71 70 69 71 71 72 72 72 72 72 72 72 72 72 71 71 71 71 71 71 71 71 71 71 71 70 70 69 69 69 69 69 69 69 69 68 68 68
20 20 23 22 16 11 13 12 13 14 12 12 11 10 18 26 32 37 42 44 39 41 49 50 53 52 53 56 56 60 63 65 67 68 68 68 68 68 68 68 69 69 69 69 69 69 69 69 69 69 70 70 71 71 71 71 71 71 71 71 72 71 69 70 72 72 72 72 72 72 72 71 72 72 71 71 71 71 71 71 71 71 71 70 70 70 69 69 69 69 70 69 69 69 68 68 68
22 12 17 15 9 10 8 14 14 16 10 10 10 10 24 28 32 39 39 40 42 48 48 48 49 46 53 56 57 61 63 65 66 67 67 68 68 68 68 68 68 68 68 68 68 68 68 68 68 68 69 69 70 70 71 71 71 71 71 71 71 70 71 72 72 72 72 72 72 72 72 71 71 71 71 70 70 71 70 70 71 71 71 70 70 70 69 69 69 70 70 69 69 69 68 68 69
17 13 11 12 9 9 7 11 12 10 11 11 11 17 26 30 32 36 37 43 46 46 37 42 39 48 55 53 59 62 64 65 66 66 66 66 66 66 66 66 67 67 67 67 66 67 67 67 66 66 67 68 69 70 70 70 71 71 71 71 71 71 71 70 71 71 72 72 71 71 70 70 69 69 69 70 70 70 70 70 70 70 70 70 70 70 69 69 69 69 69 69 69 68 68 68 68
16 16 14 12 9 9 13 13 14 12 11 9 10 14 29 31 33 36 38 38 40 41 42 42 46 48 53 58 62 63 64 64 65 64 64 63 64 64 64 65 66 65 66 65 65 66 66 66 67 66 66 67 67 69 69 70 71 70 70 70 70 70 70 69 69 69 71 70 71 70 69 70 68 68 69 70 69 70 70 70 70 70 70 70 69 69 69 68 68 69 68 68 69 68 68 65 65
14 19 15 10 12 10 13 13 13 11 9 11 11 12 17 31 33 27 36 37 39 40 41 43 48 54 58 60 61 62 63 63 62 62 61 61 62 62 63 63 63 64 65 65 64 66 65 65 66 67 67 66 66 67 69 70 70 70 70 70 70 70 70 70 68 69 68 68 70 69 69 68 67 68 69 69 69 70 70 70 70 70 70 70 69 69 69 69 68 69 68 68 68 68 64 62 62
12 15 13 12 15 14 18 14 11 11 12 9 9 10 28 30 26 26 35 37 39 40 40 42 49 54 56 58 61 61 61 61 61 60 60 60 60 61 60 61 60 62 63 64 64 65 65 65 66 67 66 66 66 66 68 69 69 69 70 69 69 69 69 69 69 68 67 68 68 68 67 67 67 67 69 70 69 69 69 70 70 70 70 70 70 69 69 69 68 69 68 68 68 67 62 62 61
11 13 11 11 12 12 11 14 13 12 11 10 12 15 12 15 21 36 37 37 39 40 42 42 47 53 55 57 59 59 60 59 59 59 59 58 58 58 60 60 60 61 61 62 64 64 64 65 65 65 66 66 66 67 69 68 68 68 69 70 69 69 69 69 67 68 67 68 69 67 67 67 66 66 66 67 66 67 67 67 67 68 68 68 69 67 67 67 67 66 66 67 65 64 62 61 62
12 10 11 12 12 11 10 10 11 10 12 12 12 11 10 17 34 37 35 34 36 39 41 43 49 53 54 55 57 57 57 58 58 58 58 56 55 55 54 51 50 52 57 60 62 62 63 65 65 65 66 66 66 66 67 68 68 67 67 68 68 68 68 67 66 66 67 68 67 66 67 66 66 66 66 66 66 66 68 68 67 67 67 67 68 67 66 66 66 65 66 66 65 64 63 62 61
8 8 9 10 11 10 12 13 14 13 12 10 10 12 13 17 32 34 21 32 35 41 42 43 48 52 54 55 55 54 55 56 56 56 55 52 52 52 50 47 49 50 56 56 53 57 59 63 65 65 65 65 65 66 66 66 65 64 66 66 66 66 65 65 65 65 66 66 67 67 66 66 66 65 65 65 65 66 67 68 68 68 67 67 66 67 66 66 65 64 64 64 62 63 63 63 62
9 6 9 8 10 10 10 10 12 10 11 10 11 17 12 19 26 18 18 20 30 41 42 43 47 51 51 52 53 53 54 53 54 54 50 50 50 49 47 46 46 48 50 48 51 53 56 55 62 65 64 65 64 66 65 65 64 66 66 69 66 68 66 63 63 65 65 66 67 67 67 66 66 66 65 65 65 65 67 68 68 68 68 67 66 65 65 65 64 63 62 61 61 62 62 62 61
7 8 9 8 10 9 10 10 10 10 9 12 15 11 13 13 16 23 22 27 34 41 41 41 43 45 47 49 50 50 50 49 49 47 48 47 48 49 46 44 44 46 46 47 47 49 49 53 58 63 65 64 64 65 65 64 65 66 66 66 66 69 64 64 64 65 65 66 66 67 68 67 67 66 66 65 65 66 66 67 68 68 68 67 66 64 64 64 63 63 62 61 60 61 60 61 61
10 8 14 10 11 11 10 9 9 10 9 13 10 17 17 15 18 18 18 31 38 41 40 40 40 42 44 46 48 47 46 46 46 46 46 47 48 45 44 42 43 45 44 45 48 49 49 50 56 61 64 64 64 64 64 64 64 64 65 65 66 67 64 64 64 64 64 65 65 66 67 67 67 67 66 65 65 65 66 66 67 67 67 67 66 65 64 63 63 62 61 61 60 60 59 60 60
11 10 9 9 9 9 10 9 9 11 11 17 14 17 12 12 14 14 26 37 41 40 40 40 40 41 42 45 46 46 45 45 45 46 48 47 46 43 44 43 41 42 45 46 48 49 53 51 55 60 63 64 62 63 62 63 63 63 64 65 65 64 65 66 64 63 64 64 65 65 66 67 67 67 66 66 65 65 65 65 66 66 66 66 66 65 64 63 63 63 62 61 60 59 59 59 60
10 10 9 10 10 10 13 12 10 9 11 14 9 9 11 9 17 15 31 37 40 40 40 39 39 40 43 45 45 45 45 46 45 46 46 44 42 42 41 40 41 44 46 47 47 48 49 50 53 56 58 60 61 62 63 62 62 62 63 62 62 63 65 64 64 63 65 64 65 64 65 66 67 66 66 65 65 65 65 65 65 65 65 65 66 66 65 65 63 62 61 61 60 59 59 59 59
11 11 7 8 11 10 11 9 9 11 9 11 10 6 7 11 12 21 33 38 40 40 39 39 39 40 43 45 45 45 44 44 45 44 45 42 41 42 40 42 45 45 46 46 48 49 48 49 50 51 54 56 59 60 61 60 60 61 61 60 61 63 62 61 63 64 63 63 63 64 65 66 65 65 66 66 66 64 64 65 64 65 65 65 65 66 66 65 65 64 64 63 63 61 60 60 59
8 8 9 9 9 7 9 13 12 10 10 10 8 6 13 14 10 17 31 37 39 39 39 39 39 39 41 45 45 44 44 44 44 43 43 42 42 41 40 43 47 45 47 48 48 48 51 52 52 52 52 53 56 57 58 57 57 57 58 58 62 60 59 60 62 61 63 63 63 63 65 66 65 64 65 65 65 64 63 64 65 65 65 65 64 65 65 65 65 64 64 63 64 62 61 61 59
7 7 13 14 6 7 9 13 11 9 11 10 9 11 9 11 10 11 22 33 38 38 39 39 38 38 41 45 44 42 43 44 43 43 44 43 43 41 42 46 47 47 49 47 47 49 51 51 53 53 54 55 56 57 56 55 54 56 53 53 56 57 57 59 59 58 58 61 64 65 65 65 65 64 64 64 64 64 64 64 65 65 65 65 64 64 65 64 64 64 64 63 62 62 61 61 59
13 5 7 15 6 11 8 15 11 8 10 11 8 15 8 7 9 11 15 25 33 37 38 37 37 38 41 45 44 42 43 43 41 41 44 44 43 42 44 46 47 47 46 46 49 49 49 52 52 51 52 52 53 54 52 53 51 51 53 58 54 56 56 56 56 56 58 59 62 63 65 65 64 64 64 63 63 63 64 65 66 65 65 65 64 64 64 64 64 64 64 64 62 62 62 62 60
14 7 17 14 12 8 7 8 12 12 11 9 7 9 11 8 9 11 13 25 29 34 35 35 35 38 42 45 44 43 42 42 41 41 43 44 44 43 45 46 47 47 46 48 48 49 49 51 52 49 49 51 51 51 50 50 51 50 50 50 50 51 51 54 55 56 59 60 58 59 61 64 64 64 65 64 62 63 64 64 63 64 65 65 65 64 64 64 64 64 64 64 63 62 62 62 60
16 21 10 17 7 12 10 12 15 13 9 6 7 8 15 13 14 17 21 19 29 31 33 32 36 38 41 44 44 42 42 42 41 41 44 44 43 45 46 49 47 47 48 47 48 47 48 49 48 48 49 50 49 50 50 50 52 52 52 54 57 53 53 54 56 58 58 57 57 58 60 62 63 65 66 66 64 64 64 63 64 64 65 64 64 65 65 64 64 64 64 63 64 63 63 62 61
10 22 22 20 21 15 14 14 14 12 10 9 10 10 12 11 17 22 26 16 24 30 31 31 34 37 40 44 42 41 41 41 41 41 44 45 45 45 45 47 47 47 48 47 47 47 47 47 50 52 49 49 49 51 52 52 52 51 51 52 53 53 54 55 56 57 56 57 57 57 59 60 61 61 63 65 65 65 64 63 63 64 64 63 64 64 64 65 64 64 63 63 64 65 64 62 62
14 22 18 20 18 16 14 16 20 15 12 7 11 7 9 13 14 20 18 28 16 22 26 30 34 36 39 42 42 40 40 40 41 43 45 46 46 46 45 46 47 48 48 47 47 46 46 47 49 50 49 49 50 52 52 52 51 51 49 50 52 52 53 55 54 54 54 56 58 56 57 58 59 59 59 60 62 63 63 63 61 61 61 63 63 63 63 65 64 63 62 63 63 63 64 64 63
26 25 19 17 16 17 17 16 18 29 17 16 16 15 16 12 17 19 26 28 20 20 24 31 33 35 37 41 41 40 40 40 41 45 46 46 47 46 46 46 47 48 47 46 45 44 45 47 49 48 48 50 51 51 50 50 48 47 48 48 49 49 52 52 52 52 53 54 55 56 56 57 57 57 57 57 59 61 60 61 60 59 60 62 62 62 63 64 64 64 64 63 63 61 62 64 64
26 24 20 16 17 18 16 22 31 29 19 12 26 12 20 24 27 30 31 25 20 20 24 29 31 34 35 38 40 40 40 39 42 45 46 47 45 46 46 46 48 46 46 45 43 44 45 47 48 48 49 50 50 51 51 50 48 48 48 48 48 50 50 49 49 50 51 54 54 54 54 53 54 55 58 57 56 56 57 58 58 60 60 60 62 63 63 64 64 63 63 61 63 62 62 63 63
28 20 20 18 19 17 20 29 35 32 24 18 25 18 22 28 31 30 31 27 26 26 22 24 31 32 34 36 40 40 39 39 42 44 46 46 46 46 46 46 46 45 46 44 43 43 45 47 47 48 49 50 50 52 51 49 49 48 48 47 50 49 48 50 49 52 54 52 52 52 52 51 51 52 54 58 56 56 56 56 57 58 59 61 59 59 59 60 61 62 62 61 60 61 61 63 63
26 21 19 18 21 18 17 27 33 32 26 21 24 20 27 31 33 34 33 30 29 34 33 30 29 30 32 34 38 40 39 39 41 44 44 46 45 46 46 45 45 46 46 44 44 43 45 48 47 48 49 50 50 52 53 49 48 48 49 49 49 48 46 53 50 50 50 51 50 51 51 50 51 52 53 55 55 55 54 55 54 55 56 58 57 57 58 59 59 60 62 62 61 60 60 60 62
29 26 21 20 22 21 18 21 30 33 29 31 23 23 21 29 21 22 27 30 30 29 28 28 34 31 32 35 36 41 39 39 40 43 45 45 45 45 45 45 45 46 46 44 44 43 45 46 47 49 49 51 50 54 52 50 49 49 51 50 50 47 47 47 48 48 49 53 50 49 49 51 51 51 53 54 55 53 53 53 55 55 55 55 55 55 55 56 57 59 61 62 62 61 60 60 61
26 30 26 26 27 25 27 30 24 23 20 27 22 14 21 26 26 28 27 29 27 30 26 22 22 29 31 31 31 37 42 40 40 43 44 45 44 44 45 45 44 45 45 44 44 44 44 46 48 49 50 51 51 52 50 49 48 48 49 48 45 45 45 45 45 47 48 49 48 48 50 50 51 50 51 53 55 54 53 53 54 54 54 55 55 54 54 55 55 56 59 60 60 61 61 61 61
19 24 31 29 27 28 28 25 22 16 14 22 28 15 15 22 23 24 25 25 24 25 26 25 25 25 30 30 30 34 39 39 41 43 44 44 44 44 45 44 44 44 44 45 45 45 45 46 48 49 50 51 51 50 50 49 46 48 48 47 45 45 45 46 45 45 49 48 48 48 48 49 50 50 51 51 54 54 53 53 53 54 55 55 55 54 54 54 55 56 56 56 58 59 61 60 60
18 28 32 30 28 27 29 27 22 20 27 28 29 21 14 15 20 23 24 23 21 22 22 25 25 24 26 29 29 32 38 39 40 42 43 44 44 44 44 44 44 43 45 45 45 46 46 47 48 50 50 52 51 49 49 47 45 47 47 47 48 47 47 47 45 46 47 51 47 48 49 49 50 51 50 51 52 54 53 52 52 53 54 55 55 54 53 53 54 55 56 55 55 57 58 58 59
22 30 29 25 24 27 29 25 23 23 18 15 20 27 15 18 20 24 26 20 20 20 21 20 21 22 24 27 29 30 36 38 40 42 43 43 44 44 44 44 44 44 45 45 45 46 47 47 49 50 50 51 50 49 48 47 47 47 47 48 49 49 48 47 48 50 48 50 46 48 49 49 48 50 51 51 51 54 54 52 51 51 52 53 54 53 53 53 53 53 53 54 54 55 56 57 57
28 30 29 25 28 30 26 21 18 17 10 11 17 23 12 12 20 22 23 19 19 19 19 20 21 22 22 25 28 30 33 37 39 41 42 43 44 44 44 44 44 44 45 46 45 48 48 48 49 50 49 50 49 49 48 46 48 49 48 48 48 48 48 47 48 48 47 47 46 47 48 48 48 49 48 50 51 52 51 51 50 51 52 53 53 51 51 51 51 52 52 52 53 53 54 55 55
31 25 19 18 22 22 25 23 22 19 5 11 19 24 15 9 15 17 16 19 22 21 20 19 19 20 22 25 26 28 32 36 38 41 43 43 44 44 44 44 44 44 45 45 45 47 49 49 49 50 49 49 49 49 47 46 48 48 48 48 48 47 46 47 47 47 47 46 47 46 46 47 49 49 49 49 50 50 51 52 51 51 52 54 52 50 50 50 50 50 50 50 51 51 52 53 53
21 22 18 16 17 17 17 18 18 6 6 14 19 22 19 9 11 18 22 25 25 22 18 19 20 19 20 25 26 26 31 35 37 40 42 43 44 45 45 45 44 44 45 45 46 48 49 49 49 49 49 49 48 48 47 46 48 49 48 49 48 47 46 46 46 47 47 47 47 47 47 47 49 50 49 49 49 50 50 49 50 49 50 48 49 49 50 50 50 49 49 50 49 50 51 52 51
16 21 19 15 13 11 5 10 4 4 9 11 19 22 16 13 13 19 18 18 18 21 20 21 20 20 23 25 28 24 27 33 37 39 42 43 43 44 45 45 45 45 44 45 46 47 48 49 49 49 49 48 48 48 47 46 48 48 49 49 49 47 46 46 45 46 47 47 46 46 46 47 48 49 48 48 48 50 49 48 47 47 48 49 49 49 49 49 48 48 48 48 48 49 50 50 50
12 12 16 13 7 2 1 5 8 10 14 20 18 23 15 18 18 23 21 22 23 23 25 24 25 26 26 25 24 23 25 26 36 38 41 42 43 44 45 46 45 45 44 45 46 47 48 49 50 48 48 48 48 48 46 46 47 48 49 49 49 49 46 46 45 45 46 47 47 47 48 49 48 49 48 48 49 49 49 50 48 47 48 49 49 48 48 48 48 48 48 48 48 48 48 48 48
10 13 12 14 14 7 2 7 1 4 8 18 24 13 14 11 15 23 25 26 26 27 26 28 29 27 27 27 26 25 25 27 30 37 39 42 43 44 45 46 46 46 45 45 46 47 47 49 50 49 49 48 48 47 47 46 47 48 48 48 48 49 46 46 45 47 46 47 48 47 48 47 48 49 49 49 50 48 48 47 47 47 47 47 47 46 47 46 46 47 49 48 48 48 47 48 47
16 18 12 11 11 18 7 13 12 13 11 9 12 13 18 20 21 26 26 27 27 29 28 28 26 26 26 26 27 27 28 32 32 34 39 42 43 44 45 46 47 47 46 46 46 47 47 48 50 50 49 48 47 48 46 46 46 48 49 48 47 49 49 47 46 48 47 46 48 47 47 47 48 48 47 48 48 48 47 48 48 47 47 47 47 47 46 46 46 46 46 45 45 49 46 46 46
17 8 13 14 18 18 13 16 20 13 15 6 12 17 16 21 15 20 24 24 25 26 26 27 27 26 25 26 26 25 27 28 31 35 37 41 43 44 46 46 47 47 47 47 46 47 47 47 49 50 50 49 47 47 46 46 47 49 49 48 47 47 48 47 46 46 47 46 48 47 47 47 47 47 48 48 48 47 47 47 46 47 46 46 46 47 46 46 45 45 45 44 44 45 47 45 46
14 11 13 18 24 24 14 6 12 6 4 9 13 12 14 12 12 20 22 22 24 25 25 24 26 26 25 26 26 26 24 26 29 32 36 41 42 43 45 46 47 48 48 48 47 47 48 48 48 49 50 50 48 47 47 46 46 49 49 48 48 47 47 46 46 46 47 46 47 47 46 46 46 48 49 49 48 47 47 51 46 46 45 46 46 45 45 45 44 44 44 44 44 44 44 44 45
13 15 22 16 15 12 22 17 4 3 3 3 12 14 14 13 15 19 21 22 23 24 25 24 24 25 26 26 25 24 26 27 27 30 30 35 40 43 43 44 45 46 48 49 50 49 49 49 48 49 50 50 49 48 47 47 47 48 49 48 47 48 47 47 47 47 47 47 46 47 47 47 46 48 50 48 47 47 47 46 45 45 45 45 44 44 46 44 44 43 44 44 44 44 44 43 44
20 17 16 18 17 18 11 14 17 13 3 2 10 11 9 16 16 20 21 24 25 24 23 23 25 27 28 27 25 24 26 27 27 28 30 30 35 43 43 44 44 45 46 48 49 50 49 49 49 49 50 50 50 49 48 47 47 48 49 49 48 48 48 47 47 47 47 47 46 47 47 46 47 49 48 48 47 47 47 45 45 45 44 44 44 44 44 43 43 43 43 44 44 44 44 43 44
20 18 17 17 21 21 12 17 11 9 3 3 4 2 10 16 22 22 22 24 25 23 24 25 25 26 27 28 27 26 25 27 28 29 29 30 32 33 41 43 43 45 47 48 49 49 49 49 50 50 49 50 51 50 48 47 47 47 48 48 48 49 48 48 47 48 47 47 47 47 47 47 48 47 47 46 46 45 45 45 44 45 43 43 43 42 42 43 42 42 42 42 43 43 43 43 45
20 20 16 10 12 11 8 12 18 16 10 6 2 8 16 20 32 27 23 25 26 24 23 24 24 24 25 26 26 25 25 26 28 28 30 32 33 34 35 39 42 45 46 46 49 50 50 49 50 50 50 50 51 51 50 49 48 47 47 48 48 48 48 48 47 47 47 46 46 47 47 48 46 46 46 46 45 44 44 44 43 43 42 43 43 42 42 41 42 42 41 43 43 42 42 43 43